SCP
0 0 0 0 0 0 0 0 0 0 0 0 0 0 0 0 -0 0 0 0 0 0 0 0 0 0 0 0 0 0 0 0 0 0 0 0 0 0 0 0 0 -0 -0 -0 0 0 0 0 0 0 0 0 0 0
0 0 0 0 0 0 0 0 0 0 0 0 0 0 0 0 0 0 0 0 0 0 0 0 0 0 0 0 0 0 0 0 0 0 0 0 0 0 0 0 0 0 0 0 -0 -0 0 0 0 0 0 0 0 0
0 0 0 0 0 0 0 0 0 0 0 0 0 0 0 0 0 0 0 0 0 0 0 0 0 0 0 0 0 0 0 0 0 0 0 0 0 0 0 0 0 0 0 0 0 0 0 -0 -0 -0 -0 -0 0 0
0 0 0 0 0 0 0 0 0 0 0 0 0 0 0 0 0 0 0 0 0 0 0 0 0 0 0 0 0 0 0 0 0 0 0 0 0 0 0 0 0 0 0 0 0 0 0 0 0 0 0 0 -0 -0
0 0 0 0 0 0 0 0 0 0 0 0 0 0 0 0 0 0 0 0 0 0 0 0 0 0 0 0 0 0 0 0 0 0 0 0 0 0 0 0 0 0 0 0 0 0 0 0 -0 0 0 0 0 0
0 0 0 0 0 0 0 0 0 0 0 0 0 0 0 0 0 0 0 0 0 0 0 0 0 0 0 0 0 0 0 0 0 0 0 0 0 0 0 0 0 0 0 0 0 0 0 0 -0 -0 -0 0 0 0
0 0 0 0 0 0 0 0 0 0 0 0 0 0 0 0 0 0 0 0 0 0 0 -0 0 0 0 0 0 0 0 0 0 0 0 0 0 0 0 0 0 0 0 0 0 0 -0 0 0 0 0 0 0 0
0 0 0 0 0 0 0 0 0 0 0 0 0 0 0 0 0 0 0 0 0 0 0 0 0 0 0 0 0 0 0 0 0 0 0 0 0 0 0 -0 0 0 -0 0 0 0 0 0 0 0 0 0 0 0
0 0 0 0 0 0 0 0 0 0 0 0 0 0 0 0 0 0 0 0 0 0 0 0 0 0 0 0 0 0 0 0 0 0 0 0 -0 -0 -0 -0 -0 0 0 0 0 0 0 0 0 0 0 0 0 0
0 0 0 0 0 0 0 0 0 0 0 0 0 0 0 0 0 0 0 0 0 0 0 0 0 0 0 0 0 0 0 0 0 0 0 0 -0 -0 -0 -0 -0 -0 -0 0 0 0 0 0 0 0 0 0 0 0
0 0 0 0 0 0 0 0 0 0 0 0 0 0 0 0 0 0 0 0 0 0 0 0 0 0 0 0 0 0 0 0 0 0 0 0 0 0 0 -0 -0 -0 0 -0 0 0 0 0 0 0 0 0 0 0
0 0 0 0 0 0 0 0 0 0 0 0 0 0 0 0 0 0 0 0 0 0 0 0 0 0 0 0 0 0 0 0 0 0 0 0 0 -0 -0 -0 -0 -0 0 0 0 0 0 0 0 0 0 0 0 0
0 0 0 0 0 0 0 0 0 0 0 0 0 0 0 0 0 0 0 0 0 0 0 0 0 0 0 0 0 0 0 0 0 0 0 0 0 -0 -0 -0 -0 -0 -0 -0 -0 0 0 0 0 0 0 0 0 0
0 0 0 0 0 0 0 0 0 0 0 0 0 0 0 0 0 0 0 0 0 0 0 0 0 0 0 0 0 0 0 0 0 0 0 0 -0 -0 -0 -0 -0 -0 -0 -0 -0 0 0 0 0 0 0 0 0 0
0 0 0 0 0 0 0 0 0 0 0 0 0 0 0 0 0 0 0 0 0 0 0 0 0 0 0 0 0 0 0 0 0 0 0 0 0 0 -0 -0 -0 0 0 0 0 0 0 0 0 0 0 0 0 0
0 0 0 0 0 0 0 0 0 0 0 0 0 0 0 0 0 0 0 0 0 0 0 0 0 0 0 0 0 0 0 0 0 0 0 0 0 0 0 -0 0 0 0 0 0 0 0 0 0 0 0 0 0 0
0 0 0 0 0 0 0 0 0 0 0 0 0 0 0 0 0 0 0 0 0 0 0 0 0 0 0 0 0 0 0 0 0 0 0 0 0 0 0 0 0 0 0 0 0 0 0 0 0 0 0 0 0 0
0 0 0 0 0 0 0 0 0 0 0 0 0 0 0 0 0 0 0 0 0 0 0 0 0 0 0 0 0 0 0 0 0 0 0 0 0 0 0 0 0 0 0 0 0 0 0 0 0 0 0 0 0 0
0 0 0 0 0 0 0 0 0 0 0 0 0 0 0 0 0 0 0 0 0 0 0 0 0 0 0 0 0 0 0 0 0 0 0 0 0 0 0 0 0 0 0 0 0 0 0 0 0 0 0 0 0 0
0 0 0 0 0 0 0 0 0 0 0 0 0 0 0 0 0 0 0 0 0 0 0 0 0 0 0 0 0 0 0 0 0 0 0 0 0 0 0 0 0 0 0 0 0 0 0 0 0 0 0 0 0 0
0 0 0 0 0 0 0 0 0 0 0 0 0 0 0 0 0 0 0 0 0 0 0 0 0 0 0 0 0 0 0 0 0 0 0 0 0 0 0 0 0 0 0 0 0 0 0 0 0 0 0 0 0 0
0 0 0 0 0 0 0 0 0 0 0 0 0 0 0 0 0 0 0 0 0 0 0 0 0 0 0 0 0 0 0 0 0 0 0 0 0 0 0 0 0 0 0 0 0 0 0 0 0 0 0 0 0 0
0 0 0 0 0 0 0 0 0 0 0 0 0 0 0 0 0 0 0 0 0 0 0 0 0 0 0 0 0 0 0 0 0 0 0 0 0 0 0 0 0 0 0 0 0 0 0 0 0 0 0 0 0 0
0 0 0 0 0 0 0 0 0 0 0 0 0 0 0 0 0 0 0 0 0 0 0 0 0 0 0 0 0 0 0 0 0 0 0 0 0 0 0 0 0 0 0 0 0 0 0 0 0 0 0 0 0 0
0 0 0 0 0 0 0 0 0 0 0 0 0 0 0 0 0 0 0 0 0 0 0 0 0 0 0 0 0 0 0 0 0 0 0 0 0 0 0 0 0 0 0 0 0 0 0 0 0 0 0 0 0 0
0 0 0 0 0 0 0 0 0 0 0 0 0 0 0 0 0 0 0 0 0 0 0 0 0 0 0 0 0 0 0 0 0 0 0 0 0 0 0 0 0 0 0 0 0 0 0 0 0 0 0 0 0 0
0 0 0 0 0 0 0 0 0 0 0 0 0 0 0 0 0 0 0 0 0 0 0 0 0 0 0 0 0 0 0 0 0 0 0 0 0 0 0 0 0 0 0 0 0 0 0 0 0 0 0 0 0 0
0 0 0 0 0 0 0 0 0 0 0 0 0 0 0 0 0 0 0 0 0 0 0 0 0 0 0 0 0 0 0 0 0 0 0 0 0 0 0 0 0 0 0 0 0 0 0 0 0 0 0 0 0 0
0 0 0 0 0 0 0 0 0 0 0 0 0 0 0 0 0 0 0 0 0 0 0 0 0 0 0 0 0 0 0 0 0 0 0 0 0 0 0 0 0 0 0 0 0 0 0 0 0 0 0 0 0 0
0 0 0 0 0 0 0 0 0 0 0 0 0 0 0 0 0 0 0 0 0 0 0 0 0 0 0 0 0 0 0 0 0 0 0 0 0 0 0 0 0 0 0 0 0 0 0 0 0 0 0 0 0 0
0 0 0 0 0 0 0 0 0 0 0 0 0 0 0 0 0 0 0 0 0 0 0 0 0 0 0 0 0 0 0 0 0 0 0 0 0 0 0 0 0 0 0 0 0 0 0 0 0 0 0 0 0 0
0 0 0 0 0 0 0 0 0 0 0 0 0 0 0 0 0 0 0 0 0 0 0 0 0 0 0 0 0 0 0 0 0 0 0 0 0 0 0 0 0 0 0 0 0 0 0 0 0 0 0 0 0 0
0 0 0 0 0 0 0 0 0 0 0 0 0 0 0 0 0 0 0 0 0 0 0 0 0 0 0 0 0 0 0 0 0 0 0 0 0 0 0 0 0 0 0 0 0 0 0 0 0 0 0 0 0 0
Wind_Speed_500mb
41 38 37 40 41 43 45 43 42 40 37 32 28 27 26 21 18 17 17 17 14 11 28 34 29 22 15 10 3 3 5 2 1 2 2 0 1 3 3 4 7 10 10 7 3 6 13 17 8 11 11 27 31 29
50 44 43 39 42 42 44 45 44 43 42 40 37 34 30 29 26 24 21 17 16 20 24 39 40 36 31 32 14 9 3 3 4 2 1 2 4 3 2 6 3 5 10 6 12 10 7 26 11 18 14 31 28 24
56 52 47 45 39 40 44 44 45 45 45 45 43 42 39 36 35 30 27 22 19 20 28 17 18 24 36 39 35 13 10 11 5 5 2 1 5 4 5 9 3 9 13 4 6 12 28 45 25 26 22 27 27 16
64 58 54 49 45 40 42 44 42 43 43 43 42 42 41 38 36 28 24 23 20 9 8 10 11 14 15 18 29 38 25 7 2 2 6 5 4 10 5 6 7 10 9 11 10 23 26 39 34 43 41 36 34 31
74 66 60 55 48 43 41 40 40 38 39 38 38 36 35 34 31 29 27 31 29 19 8 15 24 24 17 11 11 12 18 24 12 6 4 6 6 1 9 6 16 28 20 15 13 18 22 7 8 37 57 54 50 42
85 77 70 63 56 49 43 39 37 35 33 32 31 30 30 26 23 21 12 19 21 35 8 6 7 8 8 10 12 12 13 14 18 9 9 9 5 4 4 7 24 35 50 62 19 44 32 20 14 12 12 32 39 38
94 88 82 74 65 58 51 46 40 36 31 30 25 23 21 22 24 16 9 9 19 20 6 9 6 8 16 14 12 14 15 8 12 6 9 6 6 10 5 8 19 35 48 56 67 62 46 39 29 33 34 27 27 33
99 97 90 85 77 68 60 54 47 41 35 30 23 18 16 19 22 30 33 16 22 11 9 5 6 7 21 12 10 13 12 16 12 7 3 5 6 9 12 41 39 25 25 30 45 63 63 40 37 42 40 41 40 40
102 101 99 94 87 79 69 61 52 44 38 28 20 12 19 17 14 18 25 30 28 17 7 9 6 6 27 11 8 15 9 5 7 5 7 5 6 14 24 34 49 48 37 21 25 49 56 66 64 57 51 48 48 52
107 101 102 101 94 87 77 66 57 50 40 35 27 15 13 15 18 10 12 15 18 19 17 10 13 7 20 19 15 14 8 3 5 6 7 4 9 71 74 66 59 43 32 44 39 35 50 68 67 64 67 64 60 53
112 106 102 102 99 91 83 71 64 56 49 49 25 16 14 23 20 11 8 11 16 10 20 17 37 10 22 8 8 15 7 5 3 7 6 6 8 13 22 25 37 57 59 57 48 44 43 38 35 43 50 55 57 57
113 109 105 102 99 93 84 80 76 76 59 37 18 22 24 15 8 8 9 4 11 11 20 17 20 13 18 13 8 12 7 3 9 12 4 7 10 43 19 21 24 24 28 37 47 56 58 49 46 46 42 41 43 45
116 110 106 103 98 96 92 91 89 91 66 37 18 17 14 14 11 17 18 9 8 18 29 27 11 21 15 10 8 6 8 10 19 4 9 13 24 27 36 37 32 27 26 25 27 32 39 51 59 56 57 54 51 50
118 112 102 101 102 102 102 98 103 100 53 21 22 12 16 12 13 14 14 9 16 24 51 40 17 14 12 8 7 9 4 5 1 6 15 8 44 44 35 36 37 36 32 31 29 29 33 39 46 56 65 65 64 64
131 128 105 98 105 105 105 105 116 107 36 21 22 16 19 21 14 22 24 24 18 48 58 27 10 10 5 6 4 9 6 10 12 12 8 15 7 12 26 40 41 37 33 32 35 39 42 45 48 51 53 58 64 69
153 120 124 105 107 106 106 111 117 104 38 23 25 7 2 14 5 19 35 25 43 58 38 10 7 7 10 10 8 20 17 14 9 8 29 21 17 6 4 5 11 23 29 31 34 42 47 51 55 56 55 55 57 59
144 118 129 116 107 110 114 108 77 46 37 25 17 50 48 22 32 37 42 42 59 55 9 8 16 26 5 7 8 11 13 9 20 25 7 6 9 10 8 15 21 27 33 40 41 47 52 54 58 62 66 66 61 55
150 138 124 129 115 119 130 85 56 40 29 33 27 47 61 63 44 25 42 56 51 31 23 12 14 9 12 15 8 8 32 35 37 44 40 33 36 42 43 37 36 41 46 50 52 52 55 59 61 62 68 67 62 58
107 132 132 138 135 123 64 48 65 20 48 36 50 48 59 61 68 74 63 61 67 58 18 16 12 11 9 11 13 25 26 27 34 35 42 41 45 52 60 62 63 58 55 49 46 55 58 52 58 62 65 63 60 53
75 121 135 145 145 66 38 27 74 44 24 41 58 64 53 49 66 77 76 75 73 30 14 12 13 22 22 39 54 65 68 62 52 49 59 75 78 69 70 70 70 66 51 46 51 55 62 65 60 63 61 57 53 50
48 98 137 157 116 78 36 36 27 57 41 23 59 55 23 51 49 63 53 75 39 21 15 52 50 61 60 58 54 53 64 72 84 85 90 96 85 73 78 80 69 59 60 68 71 69 67 68 62 60 55 48 43 38
32 73 94 145 48 49 37 46 51 31 43 41 39 45 17 9 15 34 48 34 36 63 51 70 59 57 61 70 79 90 95 98 109 121 120 95 80 74 70 65 53 59 67 68 66 68 65 61 55 49 41 37 35 32
52 40 53 54 22 25 25 74 41 49 16 17 30 18 11 9 25 52 9 32 57 71 77 80 67 56 65 75 83 91 100 110 121 103 86 80 78 76 75 75 77 76 74 71 64 59 53 48 41 34 32 31 30 28
55 15 16 23 19 16 36 17 39 19 10 16 19 15 11 9 38 9 10 18 53 62 69 69 74 80 79 80 89 107 126 89 88 85 78 71 72 76 80 78 72 67 64 60 53 46 40 34 29 26 27 29 28 26
16 16 15 13 7 13 17 25 32 12 12 22 34 13 7 19 8 11 9 10 54 64 71 80 94 98 93 104 105 86 70 67 74 74 76 66 66 69 67 64 60 54 47 41 37 32 28 26 25 27 28 29 29 28
17 17 10 9 5 21 15 26 37 30 27 36 14 12 17 9 10 11 9 36 39 73 91 96 99 98 102 101 85 70 64 53 52 60 64 60 57 56 54 50 47 43 37 31 28 26 28 29 30 32 34 33 30 23
9 8 7 7 6 2 10 9 19 36 40 14 14 10 11 14 16 10 16 20 44 53 70 76 77 85 87 62 62 63 60 60 57 53 53 50 46 45 44 42 34 28 25 21 20 23 28 35 38 37 36 32 26 22
4 6 7 8 1 7 6 14 14 37 23 12 22 15 24 23 14 7 6 6 19 31 41 55 66 72 74 71 62 55 57 50 40 37 40 36 29 27 25 23 22 22 21 25 30 33 35 37 40 36 30 26 22 16
8 28 10 4 4 6 11 5 4 6 10 21 24 8 8 15 15 11 8 3 4 11 22 28 32 39 45 50 51 53 52 47 41 44 44 34 26 20 18 18 24 32 36 42 42 40 42 38 34 31 26 19 12 5
13 35 9 2 4 9 9 16 11 17 26 24 26 23 20 19 39 25 15 12 11 8 2 5 11 17 20 23 27 29 32 35 36 35 29 28 24 23 30 36 41 46 50 51 54 50 42 37 32 26 18 12 6 2
37 20 7 9 7 9 10 22 43 50 33 32 38 29 28 21 27 50 44 30 22 13 8 8 6 2 3 6 10 14 18 22 24 21 18 15 24 36 44 52 56 56 53 47 44 41 36 30 22 15 10 6 4 3
22 13 12 7 5 10 14 14 14 17 24 24 25 21 15 15 14 29 56 39 28 23 24 17 10 9 5 4 6 7 8 10 14 14 16 28 45 56 59 58 57 54 49 44 37 30 23 16 11 9 7 6 4 4
12 22 14 8 8 8 20 9 8 8 18 9 18 22 20 14 11 31 35 46 38 32 26 20 16 12 7 6 8 8 12 17 19 26 38 52 60 63 62 57 52 47 39 32 26 20 13 9 8 8 6 5 6 8
Wind_Direction_500mb
243 242 238 231 226 222 221 223 222 223 229 231 234 240 252 264 270 276 278 285 269 262 276 266 259 242 238 218 190 313 348 28 9 263 91 165 277 215 6 250 188 175 153 188 183 115 266 189 114 169 150 140 134 132
239 239 239 235 229 227 225 221 225 227 230 235 238 241 244 257 267 272 277 286 282 276 271 278 275 263 250 243 240 220 234 207 291 75 284 33 266 148 184 283 290 272 193 197 185 214 211 184 165 208 177 160 168 168
237 236 236 235 231 229 228 227 228 230 233 238 242 247 248 251 258 260 261 265 275 284 292 267 274 262 249 244 239 223 230 223 229 198 284 300 251 117 234 241 266 252 252 200 57 269 253 260 248 241 226 189 183 200
236 235 233 232 231 230 228 228 227 231 234 240 243 248 252 251 250 254 254 258 241 274 278 268 294 274 258 236 227 217 224 202 186 233 241 247 200 186 261 267 220 211 131 193 259 262 272 261 248 252 243 233 236 257
233 233 233 231 228 227 228 227 228 230 235 239 241 242 248 249 249 242 245 248 241 224 281 289 293 271 238 221 218 220 230 237 241 224 211 233 254 12 241 252 256 199 207 198 224 212 200 244 278 243 243 242 248 251
231 230 230 229 226 224 224 224 225 225 231 232 239 238 234 235 235 239 251 253 237 206 242 282 261 211 186 198 202 207 203 203 201 210 244 252 218 243 284 253 244 230 222 222 225 238 257 247 242 248 233 233 245 248
230 229 229 228 226 223 221 222 222 222 222 229 228 223 223 227 212 211 233 176 160 179 244 274 229 210 199 202 202 206 199 188 197 223 237 255 180 202 244 248 253 236 234 233 233 239 258 248 243 252 256 236 237 247
231 229 227 226 227 223 222 220 220 220 218 218 208 210 221 203 214 229 240 188 179 217 245 267 256 192 178 185 184 191 185 194 211 244 251 206 202 224 255 239 248 250 258 250 238 232 238 248 246 247 248 248 252 252
232 230 227 226 225 225 221 220 215 211 207 194 197 190 161 191 220 235 234 211 207 213 254 222 211 197 166 160 167 174 188 175 206 238 181 167 229 229 231 243 244 241 228 227 238 234 238 244 247 251 253 251 253 251
232 231 229 228 225 223 221 215 208 199 185 188 188 190 205 198 192 176 152 176 207 215 222 243 210 182 163 164 185 161 182 222 220 214 151 215 253 254 252 249 253 246 237 233 236 234 230 238 241 244 246 250 254 255
231 230 229 227 225 223 219 208 197 187 179 189 198 211 186 164 164 155 206 208 189 236 214 216 200 144 183 156 166 195 174 163 220 247 144 256 264 242 251 234 236 241 241 240 243 251 250 254 261 259 256 256 254 255
232 229 228 226 222 218 212 202 194 188 188 192 188 165 158 180 162 176 201 195 223 226 191 171 179 167 168 166 134 190 154 110 225 145 89 263 250 243 223 187 186 194 211 228 237 244 245 249 250 251 255 255 251 251
232 230 227 223 216 211 206 199 197 195 191 171 194 168 179 166 197 188 190 220 225 193 176 156 142 158 155 169 106 126 136 202 133 131 230 233 254 230 208 205 202 203 210 219 233 244 249 248 245 249 252 254 254 255
227 228 225 216 213 210 205 198 197 194 179 191 170 200 199 186 229 196 196 178 181 154 146 150 125 148 150 146 160 123 253 93 136 245 235 247 246 245 226 216 217 221 230 240 247 255 262 263 262 257 257 257 257 259
223 223 222 218 212 209 205 197 198 191 181 188 187 222 207 206 179 190 185 139 133 153 147 133 100 147 157 107 164 100 52 235 216 233 233 250 328 265 238 227 227 236 240 247 259 268 270 271 270 270 268 263 262 262
218 219 215 215 209 205 201 193 191 188 197 207 225 192 135 154 138 165 175 152 155 154 152 155 141 152 216 151 134 207 158 217 243 222 250 266 287 0 38 242 270 278 279 281 284 288 284 280 281 279 275 269 266 262
212 204 209 206 203 198 193 178 177 191 195 219 204 209 195 183 197 201 181 177 167 158 185 155 179 213 98 140 226 190 204 212 229 241 299 12 32 73 359 344 308 303 301 296 291 289 291 291 289 283 280 274 267 265
205 205 210 201 192 188 187 183 186 193 218 213 205 203 203 214 206 192 191 180 165 193 170 206 151 181 193 179 235 229 226 238 261 265 270 284 290 293 297 294 290 292 292 287 282 282 284 285 286 290 287 280 271 266
210 204 202 196 185 184 186 190 190 199 224 213 209 203 194 206 211 218 218 200 194 189 190 184 219 182 195 205 224 263 272 257 255 269 277 277 278 281 286 289 291 291 290 279 278 282 279 282 288 288 285 278 272 265
194 203 199 191 186 187 186 184 193 209 216 204 205 196 190 193 199 205 210 198 190 187 212 214 193 192 180 214 238 251 267 281 285 284 282 284 284 286 289 294 292 292 281 275 284 281 283 282 282 280 276 272 263 253
223 198 194 186 186 192 187 166 164 211 205 184 198 180 183 190 183 184 186 188 189 206 229 229 235 236 241 242 242 250 257 263 271 278 280 281 282 284 285 285 284 281 279 285 286 287 285 283 280 273 266 259 248 244
241 195 189 186 186 188 198 177 185 184 184 200 170 183 146 174 171 187 170 191 221 219 223 231 240 238 238 239 243 245 251 258 268 272 272 275 281 284 285 289 287 286 286 288 287 286 281 273 272 266 256 244 235 230
221 206 191 188 182 166 164 172 176 182 168 162 156 176 191 179 172 164 196 222 230 229 233 237 242 243 244 247 249 251 253 256 260 264 270 274 278 279 278 280 284 288 290 289 286 281 278 276 269 256 238 224 216 219
217 240 227 194 165 158 157 160 167 151 113 169 165 187 164 142 147 184 227 221 223 224 228 232 237 247 250 248 246 250 253 252 259 264 266 270 272 274 279 282 284 285 284 281 276 273 269 261 251 230 214 207 206 200
193 213 235 212 147 129 157 153 169 144 157 185 192 168 165 148 141 188 226 210 211 213 216 222 227 233 238 244 250 254 256 251 254 260 265 263 265 268 272 275 277 277 277 271 263 256 247 232 213 201 197 192 187 180
209 211 220 183 190 176 152 170 181 175 188 188 175 125 144 134 152 223 215 192 191 207 214 219 227 229 239 243 253 255 257 256 254 255 264 267 266 266 268 267 268 268 264 256 249 240 223 204 192 185 177 175 171 167
223 194 166 198 248 191 121 142 157 184 188 176 144 135 137 173 194 230 141 156 187 206 219 224 228 232 240 249 250 254 259 259 254 255 260 261 262 263 262 261 262 254 246 235 221 200 190 179 174 170 167 164 163 170
284 157 179 166 226 291 124 138 153 183 189 137 131 161 170 179 192 22 60 126 188 199 207 216 223 231 236 239 246 251 253 256 250 246 254 257 259 256 250 248 238 213 191 179 172 166 167 165 161 159 159 162 163 169
21 351 298 157 123 47 35 357 60 43 103 158 170 122 106 71 50 55 56 60 145 190 209 215 223 232 238 243 245 247 249 249 247 246 248 241 234 228 221 193 174 162 160 154 150 151 151 151 150 155 157 161 163 175
342 347 318 93 60 60 16 5 26 40 54 81 108 98 83 86 61 65 70 76 86 69 90 215 230 239 242 240 240 239 236 234 236 236 238 236 229 204 179 167 161 156 154 156 154 147 146 154 156 158 161 164 172 185
330 331 327 51 70 16 28 63 64 59 57 46 58 89 112 127 69 48 45 49 49 50 58 62 49 6 267 251 243 238 228 222 221 227 224 217 186 171 162 158 155 154 152 146 143 149 153 155 156 157 159 153 126 69
320 350 332 43 75 24 39 50 54 52 36 37 33 52 77 78 63 31 19 26 31 41 43 42 40 48 71 126 168 182 193 194 196 188 180 170 160 154 151 153 147 140 139 144 146 147 149 151 146 141 125 111 93 67
309 348 351 16 18 27 14 60 66 87 50 51 48 40 42 62 77 16 19 22 26 27 29 37 42 46 69 119 149 155 151 148 147 143 146 151 148 146 146 143 140 140 143 146 146 144 142 135 132 125 116 113 98 104
Wind_Speed_850mb
41 38 37 40 41 43 45 43 42 40 37 32 28 27 26 21 18 17 17 17 14 11 28 34 29 22 15 10 3 3 5 2 1 2 2 0 1 3 3 4 7 10 10 7 3 6 13 17 8 11 11 27 31 29
50 44 43 39 42 42 44 45 44 43 42 40 37 34 30 29 26 24 21 17 16 20 24 39 40 36 31 32 14 9 3 3 4 2 1 2 4 3 2 6 3 5 10 6 12 10 7 26 11 18 14 31 28 24
56 52 47 45 39 40 44 44 45 45 45 45 43 42 39 36 35 30 27 22 19 20 28 17 18 24 36 39 35 13 10 11 5 5 2 1 5 4 5 9 3 9 13 4 6 12 28 45 25 26 22 27 27 16
64 58 54 49 45 40 42 44 42 43 43 43 42 42 41 38 36 28 24 23 20 9 8 10 11 14 15 18 29 38 25 7 2 2 6 5 4 10 5 6 7 10 9 11 10 23 26 39 34 43 41 36 34 31
74 66 60 55 48 43 41 40 40 38 39 38 38 36 35 34 31 29 27 31 29 19 8 15 24 24 17 11 11 12 18 24 12 6 4 6 6 1 9 6 16 28 20 15 13 18 22 7 8 37 57 54 50 42
85 77 70 63 56 49 43 39 37 35 33 32 31 30 30 26 23 21 12 19 21 35 8 6 7 8 8 10 12 12 13 14 18 9 9 9 5 4 4 7 24 35 50 62 19 44 32 20 14 12 12 32 39 38
94 88 82 74 65 58 51 46 40 36 31 30 25 23 21 22 24 16 9 9 19 20 6 9 6 8 16 14 12 14 15 8 12 6 9 6 6 10 5 8 19 35 48 56 67 62 46 39 29 33 34 27 27 33
99 97 90 85 77 68 60 54 47 41 35 30 23 18 16 19 22 30 33 16 22 11 9 5 6 7 21 12 10 13 12 16 12 7 3 5 6 9 12 41 39 25 25 30 45 63 63 40 37 42 40 41 40 40
102 101 99 94 87 79 69 61 52 44 38 28 20 12 19 17 14 18 25 30 28 17 7 9 6 6 27 11 8 15 9 5 7 5 7 5 6 14 24 34 49 48 37 21 25 49 56 66 64 57 51 48 48 52
107 101 102 101 94 87 77 66 57 50 40 35 27 15 13 15 18 10 12 15 18 19 17 10 13 7 20 19 15 14 8 3 5 6 7 4 9 71 74 66 59 43 32 44 39 35 50 68 67 64 67 64 60 53
112 106 102 102 99 91 83 71 64 56 49 49 25 16 14 23 20 11 8 11 16 10 20 17 37 10 22 8 8 15 7 5 3 7 6 6 8 13 22 25 37 57 59 57 48 44 43 38 35 43 50 55 57 57
113 109 105 102 99 93 84 80 76 76 59 37 18 22 24 15 8 8 9 4 11 11 20 17 20 13 18 13 8 12 7 3 9 12 4 7 10 43 19 21 24 24 28 37 47 56 58 49 46 46 42 41 43 45
116 110 106 103 98 96 92 91 89 91 66 37 18 17 14 14 11 17 18 9 8 18 29 27 11 21 15 10 8 6 8 10 19 4 9 13 24 27 36 37 32 27 26 25 27 32 39 51 59 56 57 54 51 50
118 112 102 101 102 102 102 98 103 100 53 21 22 12 16 12 13 14 14 9 16 24 51 40 17 14 12 8 7 9 4 5 1 6 15 8 44 44 35 36 37 36 32 31 29 29 33 39 46 56 65 65 64 64
131 128 105 98 105 105 105 105 116 107 36 21 22 16 19 21 14 22 24 24 18 48 58 27 10 10 5 6 4 9 6 10 12 12 8 15 7 12 26 40 41 37 33 32 35 39 42 45 48 51 53 58 64 69
153 120 124 105 107 106 106 111 117 104 38 23 25 7 2 14 5 19 35 25 43 58 38 10 7 7 10 10 8 20 17 14 9 8 29 21 17 6 4 5 11 23 29 31 34 42 47 51 55 56 55 55 57 59
144 118 129 116 107 110 114 108 77 46 37 25 17 50 48 22 32 37 42 42 59 55 9 8 16 26 5 7 8 11 13 9 20 25 7 6 9 10 8 15 21 27 33 40 41 47 52 54 58 62 66 66 61 55
150 138 124 129 115 119 130 85 56 40 29 33 27 47 61 63 44 25 42 56 51 31 23 12 14 9 12 15 8 8 32 35 37 44 40 33 36 42 43 37 36 41 46 50 52 52 55 59 61 62 68 67 62 58
107 132 132 138 135 123 64 48 65 20 48 36 50 48 59 61 68 74 63 61 67 58 18 16 12 11 9 11 13 25 26 27 34 35 42 41 45 52 60 62 63 58 55 49 46 55 58 52 58 62 65 63 60 53
75 121 135 145 145 66 38 27 74 44 24 41 58 64 53 49 66 77 76 75 73 30 14 12 13 22 22 39 54 65 68 62 52 49 59 75 78 69 70 70 70 66 51 46 51 55 62 65 60 63 61 57 53 50
48 98 137 157 116 78 36 36 27 57 41 23 59 55 23 51 49 63 53 75 39 21 15 52 50 61 60 58 54 53 64 72 84 85 90 96 85 73 78 80 69 59 60 68 71 69 67 68 62 60 55 48 43 38
32 73 94 145 48 49 37 46 51 31 43 41 39 45 17 9 15 34 48 34 36 63 51 70 59 57 61 70 79 90 95 98 109 121 120 95 80 74 70 65 53 59 67 68 66 68 65 61 55 49 41 37 35 32
52 40 53 54 22 25 25 74 41 49 16 17 30 18 11 9 25 52 9 32 57 71 77 80 67 56 65 75 83 91 100 110 121 103 86 80 78 76 75 75 77 76 74 71 64 59 53 48 41 34 32 31 30 28
55 15 16 23 19 16 36 17 39 19 10 16 19 15 11 9 38 9 10 18 53 62 69 69 74 80 79 80 89 107 126 89 88 85 78 71 72 76 80 78 72 67 64 60 53 46 40 34 29 26 27 29 28 26
16 16 15 13 7 13 17 25 32 12 12 22 34 13 7 19 8 11 9 10 54 64 71 80 94 98 93 104 105 86 70 67 74 74 76 66 66 69 67 64 60 54 47 41 37 32 28 26 25 27 28 29 29 28
17 17 10 9 5 21 15 26 37 30 27 36 14 12 17 9 10 11 9 36 39 73 91 96 99 98 102 101 85 70 64 53 52 60 64 60 57 56 54 50 47 43 37 31 28 26 28 29 30 32 34 33 30 23
9 8 7 7 6 2 10 9 19 36 40 14 14 10 11 14 16 10 16 20 44 53 70 76 77 85 87 62 62 63 60 60 57 53 53 50 46 45 44 42 34 28 25 21 20 23 28 35 38 37 36 32 26 22
4 6 7 8 1 7 6 14 14 37 23 12 22 15 24 23 14 7 6 6 19 31 41 55 66 72 74 71 62 55 57 50 40 37 40 36 29 27 25 23 22 22 21 25 30 33 35 37 40 36 30 26 22 16
8 28 10 4 4 6 11 5 4 6 10 21 24 8 8 15 15 11 8 3 4 11 22 28 32 39 45 50 51 53 52 47 41 44 44 34 26 20 18 18 24 32 36 42 42 40 42 38 34 31 26 19 12 5
13 35 9 2 4 9 9 16 11 17 26 24 26 23 20 19 39 25 15 12 11 8 2 5 11 17 20 23 27 29 32 35 36 35 29 28 24 23 30 36 41 46 50 51 54 50 42 37 32 26 18 12 6 2
37 20 7 9 7 9 10 22 43 50 33 32 38 29 28 21 27 50 44 30 22 13 8 8 6 2 3 6 10 14 18 22 24 21 18 15 24 36 44 52 56 56 53 47 44 41 36 30 22 15 10 6 4 3
22 13 12 7 5 10 14 14 14 17 24 24 25 21 15 15 14 29 56 39 28 23 24 17 10 9 5 4 6 7 8 10 14 14 16 28 45 56 59 58 57 54 49 44 37 30 23 16 11 9 7 6 4 4
12 22 14 8 8 8 20 9 8 8 18 9 18 22 20 14 11 31 35 46 38 32 26 20 16 12 7 6 8 8 12 17 19 26 38 52 60 63 62 57 52 47 39 32 26 20 13 9 8 8 6 5 6 8
Wind_Direction_850mb
243 242 238 231 226 222 221 223 222 223 229 231 234 240 252 264 270 276 278 285 269 262 276 266 259 242 238 218 190 313 348 28 9 263 91 165 277 215 6 250 188 175 153 188 183 115 266 189 114 169 150 140 134 132
239 239 239 235 229 227 225 221 225 227 230 235 238 241 244 257 267 272 277 286 282 276 271 278 275 263 250 243 240 220 234 207 291 75 284 33 266 148 184 283 290 272 193 197 185 214 211 184 165 208 177 160 168 168
237 236 236 235 231 229 228 227 228 230 233 238 242 247 248 251 258 260 261 265 275 284 292 267 274 262 249 244 239 223 230 223 229 198 284 300 251 117 234 241 266 252 252 200 57 269 253 260 248 241 226 189 183 200
236 235 233 232 231 230 228 228 227 231 234 240 243 248 252 251 250 254 254 258 241 274 278 268 294 274 258 236 227 217 224 202 186 233 241 247 200 186 261 267 220 211 131 193 259 262 272 261 248 252 243 233 236 257
233 233 233 231 228 227 228 227 228 230 235 239 241 242 248 249 249 242 245 248 241 224 281 289 293 271 238 221 218 220 230 237 241 224 211 233 254 12 241 252 256 199 207 198 224 212 200 244 278 243 243 242 248 251
231 230 230 229 226 224 224 224 225 225 231 232 239 238 234 235 235 239 251 253 237 206 242 282 261 211 186 198 202 207 203 203 201 210 244 252 218 243 284 253 244 230 222 222 225 238 257 247 242 248 233 233 245 248
230 229 229 228 226 223 221 222 222 222 222 229 228 223 223 227 212 211 233 176 160 179 244 274 229 210 199 202 202 206 199 188 197 223 237 255 180 202 244 248 253 236 234 233 233 239 258 248 243 252 256 236 237 247
231 229 227 226 227 223 222 220 220 220 218 218 208 210 221 203 214 229 240 188 179 217 245 267 256 192 178 185 184 191 185 194 211 244 251 206 202 224 255 239 248 250 258 250 238 232 238 248 246 247 248 248 252 252
232 230 227 226 225 225 221 220 215 211 207 194 197 190 161 191 220 235 234 211 207 213 254 222 211 197 166 160 167 174 188 175 206 238 181 167 229 229 231 243 244 241 228 227 238 234 238 244 247 251 253 251 253 251
232 231 229 228 225 223 221 215 208 199 185 188 188 190 205 198 192 176 152 176 207 215 222 243 210 182 163 164 185 161 182 222 220 214 151 215 253 254 252 249 253 246 237 233 236 234 230 238 241 244 246 250 254 255
231 230 229 227 225 223 219 208 197 187 179 189 198 211 186 164 164 155 206 208 189 236 214 216 200 144 183 156 166 195 174 163 220 247 144 256 264 242 251 234 236 241 241 240 243 251 250 254 261 259 256 256 254 255
232 229 228 226 222 218 212 202 194 188 188 192 188 165 158 180 162 176 201 195 223 226 191 171 179 167 168 166 134 190 154 110 225 145 89 263 250 243 223 187 186 194 211 228 237 244 245 249 250 251 255 255 251 251
232 230 227 223 216 211 206 199 197 195 191 171 194 168 179 166 197 188 190 220 225 193 176 156 142 158 155 169 106 126 136 202 133 131 230 233 254 230 208 205 202 203 210 219 233 244 249 248 245 249 252 254 254 255
227 228 225 216 213 210 205 198 197 194 179 191 170 200 199 186 229 196 196 178 181 154 146 150 125 148 150 146 160 123 253 93 136 245 235 247 246 245 226 216 217 221 230 240 247 255 262 263 262 257 257 257 257 259
223 223 222 218 212 209 205 197 198 191 181 188 187 222 207 206 179 190 185 139 133 153 147 133 100 147 157 107 164 100 52 235 216 233 233 250 328 265 238 227 227 236 240 247 259 268 270 271 270 270 268 263 262 262
218 219 215 215 209 205 201 193 191 188 197 207 225 192 135 154 138 165 175 152 155 154 152 155 141 152 216 151 134 207 158 217 243 222 250 266 287 0 38 242 270 278 279 281 284 288 284 280 281 279 275 269 266 262
212 204 209 206 203 198 193 178 177 191 195 219 204 209 195 183 197 201 181 177 167 158 185 155 179 213 98 140 226 190 204 212 229 241 299 12 32 73 359 344 308 303 301 296 291 289 291 291 289 283 280 274 267 265
205 205 210 201 192 188 187 183 186 193 218 213 205 203 203 214 206 192 191 180 165 193 170 206 151 181 193 179 235 229 226 238 261 265 270 284 290 293 297 294 290 292 292 287 282 282 284 285 286 290 287 280 271 266
210 204 202 196 185 184 186 190 190 199 224 213 209 203 194 206 211 218 218 200 194 189 190 184 219 182 195 205 224 263 272 257 255 269 277 277 278 281 286 289 291 291 290 279 278 282 279 282 288 288 285 278 272 265
194 203 199 191 186 187 186 184 193 209 216 204 205 196 190 193 199 205 210 198 190 187 212 214 193 192 180 214 238 251 267 281 285 284 282 284 284 286 289 294 292 292 281 275 284 281 283 282 282 280 276 272 263 253
223 198 194 186 186 192 187 166 164 211 205 184 198 180 183 190 183 184 186 188 189 206 229 229 235 236 241 242 242 250 257 263 271 278 280 281 282 284 285 285 284 281 279 285 286 287 285 283 280 273 266 259 248 244
241 195 189 186 186 188 198 177 185 184 184 200 170 183 146 174 171 187 170 191 221 219 223 231 240 238 238 239 243 245 251 258 268 272 272 275 281 284 285 289 287 286 286 288 287 286 281 273 272 266 256 244 235 230
221 206 191 188 182 166 164 172 176 182 168 162 156 176 191 179 172 164 196 222 230 229 233 237 242 243 244 247 249 251 253 256 260 264 270 274 278 279 278 280 284 288 290 289 286 281 278 276 269 256 238 224 216 219
217 240 227 194 165 158 157 160 167 151 113 169 165 187 164 142 147 184 227 221 223 224 228 232 237 247 250 248 246 250 253 252 259 264 266 270 272 274 279 282 284 285 284 281 276 273 269 261 251 230 214 207 206 200
193 213 235 212 147 129 157 153 169 144 157 185 192 168 165 148 141 188 226 210 211 213 216 222 227 233 238 244 250 254 256 251 254 260 265 263 265 268 272 275 277 277 277 271 263 256 247 232 213 201 197 192 187 180
209 211 220 183 190 176 152 170 181 175 188 188 175 125 144 134 152 223 215 192 191 207 214 219 227 229 239 243 253 255 257 256 254 255 264 267 266 266 268 267 268 268 264 256 249 240 223 204 192 185 177 175 171 167
223 194 166 198 248 191 121 142 157 184 188 176 144 135 137 173 194 230 141 156 187 206 219 224 228 232 240 249 250 254 259 259 254 255 260 261 262 263 262 261 262 254 246 235 221 200 190 179 174 170 167 164 163 170
284 157 179 166 226 291 124 138 153 183 189 137 131 161 170 179 192 22 60 126 188 199 207 216 223 231 236 239 246 251 253 256 250 246 254 257 259 256 250 248 238 213 191 179 172 166 167 165 161 159 159 162 163 169
21 351 298 157 123 47 35 357 60 43 103 158 170 122 106 71 50 55 56 60 145 190 209 215 223 232 238 243 245 247 249 249 247 246 248 241 234 228 221 193 174 162 160 154 150 151 151 151 150 155 157 161 163 175
342 347 318 93 60 60 16 5 26 40 54 81 108 98 83 86 61 65 70 76 86 69 90 215 230 239 242 240 240 239 236 234 236 236 238 236 229 204 179 167 161 156 154 156 154 147 146 154 156 158 161 164 172 185
330 331 327 51 70 16 28 63 64 59 57 46 58 89 112 127 69 48 45 49 49 50 58 62 49 6 267 251 243 238 228 222 221 227 224 217 186 171 162 158 155 154 152 146 143 149 153 155 156 157 159 153 126 69
320 350 332 43 75 24 39 50 54 52 36 37 33 52 77 78 63 31 19 26 31 41 43 42 40 48 71 126 168 182 193 194 196 188 180 170 160 154 151 153 147 140 139 144 146 147 149 151 146 141 125 111 93 67
309 348 351 16 18 27 14 60 66 87 50 51 48 40 42 62 77 16 19 22 26 27 29 37 42 46 69 119 149 155 151 148 147 143 146 151 148 146 146 143 140 140 143 146 146 144 142 135 132 125 116 113 98 104